{"data":{"norad_id":64363,"intl_designator":"2025-126V","name":"STARLINK-34408","alt_names":[],"object_type":"PAYLOAD","status":"ACTIVE","operator":null,"country":"US","launch_date":"2025-06-13","launch_site_code":"AFWTR","launch_vehicle":null,"mission":null,"orbit_class":"UNKNOWN","rcs_meters":null,"size_class":null,"mass_kg":null,"dimensions":null,"purposes":["comms"],"wikipedia_slug":null,"has_3d_model":false,"image_url":null,"decayed_at":null,"tle_current":{"epoch":"2026-09-20T23:30:45.748224Z","epoch_age_seconds":93019,"freshness":"FRESH","line1":"1 64363U 25126V   26263.97969616  .00008875  00000+0  31270-3 0  9993","line2":"2 64363  69.9999 259.6976 0002978 269.5638  90.5195 15.29591033 69994","mean_motion":15.29591033,"eccentricity":0.0002978,"inclination_deg":69.9999,"raan_deg":259.6976,"arg_perigee_deg":269.5638,"mean_anomaly_deg":90.5195,"bstar":0.0003127,"rev_number":6999,"period_min":94.142811309224,"perigee_km":474.99246842828,"apogee_km":479.07540823915,"semimajor_km":6855.1709383337,"source":"CELESTRAK","updated_at":"2026-09-21T09:00:35.319883Z"}}}